Temperature
8 8 9 9 9 10 10 10 10 10 10 11 11 11 11 11 11 11 11 11 11 11 11 11 11 11 11 11 11 11 10 10 10 10 9 9 9 9 8 8 8 8 8
7 8 8 9 9 9 9 10 10 10 10 10 10 10 10 10 10 10 10 10 10 10 10 10 10 10 11 11 10 10 10 10 9 9 9 8 8 8 8 8 8 7 7
7 7 8 8 8 9 9 9 9 9 9 10 10 10 10 10 10 10 10 10 10 10 10 10 10 10 10 10 10 9 9 9 9 9 8 8 7 7 8 8 7 7 7
7 7 8 8 8 8 8 8 9 9 9 9 9 9 9 9 9 9 9 9 9 9 9 9 9 9 9 9 9 9 9 9 8 8 8 8 7 7 7 7 7 7 7
7 7 7 8 8 8 8 8 8 8 8 9 9 9 9 9 9 9 9 9 9 9 9 9 9 9 9 9 9 9 8 8 8 8 8 7 7 7 7 6 7 7 7
7 7 7 7 7 8 8 8 8 8 8 8 8 8 8 8 8 8 9 9 9 9 9 8 8 9 9 9 8 8 8 8 8 7 7 7 7 7 6 6 6 6 7
6 7 7 7 7 7 7 7 7 8 8 8 8 8 8 8 8 8 8 8 8 8 8 8 8 8 8 8 8 8 8 8 7 7 7 7 6 6 6 6 6 5 6
6 6 6 7 7 7 7 7 7 7 7 7 7 7 7 7 7 7 7 8 8 8 8 8 8 8 8 8 8 8 7 7 7 7 6 6 6 6 5 5 5 5 5
5 6 6 6 6 6 7 7 7 7 7 7 7 7 7 7 7 7 7 7 7 7 7 7 7 7 7 7 7 7 7 7 6 6 6 6 6 5 5 5 5 4 4
5 5 6 6 6 6 6 6 6 6 6 6 6 6 6 6 6 6 6 7 7 7 6 7 7 7 7 7 7 7 6 6 6 6 6 6 5 5 5 5 5 4 4
4 5 5 5 5 5 5 5 6 6 6 6 6 6 6 6 6 6 6 6 6 6 6 6 6 6 6 6 6 6 6 6 6 6 6 5 5 5 5 5 5 4 4
4 4 4 5 5 5 5 5 5 5 5 5 5 5 5 5 6 6 6 6 6 6 5 5 6 6 6 6 6 6 5 5 5 5 5 5 5 5 5 4 4 4 4
3 3 4 4 4 4 4 4 4 5 5 5 5 5 5 5 5 5 5 5 5 5 5 5 5 5 5 5 5 5 5 5 5 5 5 5 5 5 4 4 4 4 3
2 3 3 3 3 3 3 4 4 4 4 4 4 4 4 4 4 4 4 5 5 5 5 5 5 5 5 5 5 5 5 5 5 5 5 4 4 4 4 4 4 3 3
2 2 2 2 3 3 3 3 3 3 3 4 4 4 4 4 4 4 4 4 4 4 4 4 4 4 4 4 4 4 4 4 4 4 4 4 4 4 4 4 4 3 3
1 1 2 2 2 2 2 3 3 3 3 3 3 3 3 3 3 3 3 3 3 4 4 4 4 4 4 4 4 4 3 3 3 4 4 4 4 4 4 4 3 3 3
1 1 1 1 2 2 2 2 2 2 2 3 3 3 3 3 3 3 3 3 3 3 3 3 3 4 4 3 3 3 3 3 3 3 3 4 3 3 3 3 3 3 2
0 1 1 1 1 1 2 2 2 2 2 2 2 2 2 2 2 2 2 2 2 2 2 3 3 3 3 3 3 2 2 3 3 3 3 3 3 3 3 3 3 3 3
0 0 1 1 1 1 1 1 1 1 1 2 2 2 2 2 2 2 2 2 2 2 2 2 2 2 2 2 2 2 2 2 2 2 2 2 2 2 2 2 2 2 2
0 0 0 0 0 1 1 1 1 1 1 1 1 1 1 1 1 1 1 1 1 1 1 1 1 1 1 1 1 1 1 2 2 2 2 2 2 2 2 2 2 2 2
-0 -0 -0 -0 -0 -0 0 0 0 0 0 0 0 1 1 1 1 1 1 1 1 1 1 1 1 1 1 1 1 1 1 1 1 1 1 1 1 1 1 1 1 1 2
-1 -1 -1 -1 -1 -0 -0 -0 -0 -0 -0 -0 -0 0 0 0 0 0 0 0 0 0 0 0 0 0 0 0 0 0 0 0 0 0 1 1 1 1 1 1 1 1 1
-1 -1 -1 -1 -1 -1 -1 -1 -1 -1 -1 -1 -1 -0 -0 -0 -0 -0 -0 -0 -0 -0 -0 -0 -0 -0 -0 -0 -0 -0 -0 -0 -0 0 0 0 1 1 1 1 1 1 1
-2 -2 -2 -2 -1 -1 -1 -1 -1 -1 -1 -1 -1 -1 -1 -1 -1 -1 -1 -1 -1 -1 -1 -1 -1 -1 -1 -1 -1 -1 -1 -1 -1 -0 0 0 0 1 1 1 1 1 1
-2 -2 -2 -2 -2 -2 -2 -2 -2 -2 -2 -2 -2 -2 -2 -2 -2 -2 -2 -2 -2 -2 -2 -2 -2 -2 -1 -1 -1 -1 -1 -1 -1 -1 -0 -0 0 0 1 1 1 0 0
-3 -3 -3 -3 -3 -3 -3 -3 -3 -2 -2 -2 -2 -2 -2 -2 -2 -2 -2 -2 -2 -2 -2 -2 -2 -2 -2 -2 -2 -2 -2 -2 -1 -1 -1 -1 -0 -0 -0 0 0 0 0
Wind_Speed
0 1 2 2 3 3 3 3 3 3 3 2 2 2 1 1 2 3 3 4 4 3 3 2 2 2 2 2 2 2 2 2 2 2 2 3 3 2 2 2 3 4 6
0 1 1 2 2 2 2 2 2 2 2 1 1 1 1 0 1 2 3 3 3 3 3 2 2 2 2 2 2 2 2 1 2 2 2 2 3 2 2 2 2 3 4
2 1 1 0 1 1 1 1 1 2 2 2 3 3 2 2 1 2 1 2 2 3 3 3 2 2 2 2 1 2 2 2 0 1 2 2 1 2 2 2 2 3 3
3 2 2 1 1 1 1 1 2 2 2 3 3 4 2 1 1 1 0 1 2 3 3 3 3 2 2 2 1 1 1 3 1 0 1 1 2 1 2 2 2 3 3
4 4 3 2 1 0 1 1 2 2 2 2 2 3 2 1 1 1 1 1 2 3 3 2 2 2 1 1 2 1 1 2 2 1 1 1 1 1 1 3 4 3 3
3 2 1 1 1 2 2 2 2 2 1 2 2 2 2 2 2 2 1 0 0 1 3 2 2 1 1 1 1 2 2 2 2 1 1 1 1 1 1 2 3 4 4
2 1 1 1 1 1 1 1 2 1 1 1 1 1 1 2 2 1 1 0 0 0 1 2 1 1 1 0 1 2 2 2 2 2 2 2 1 1 1 1 2 3 3
1 1 1 1 1 1 1 1 1 0 0 0 0 1 1 1 1 1 1 1 1 1 1 1 1 1 1 1 1 1 1 1 2 2 2 2 1 1 1 1 1 3 3
0 0 1 1 1 0 1 1 1 0 0 0 0 0 0 0 1 1 1 1 0 0 1 1 1 1 1 1 1 0 1 1 2 2 2 2 2 2 1 1 2 1 3
2 2 1 0 1 0 0 0 0 1 0 0 0 0 0 1 1 0 1 0 0 0 0 0 0 1 1 1 0 1 1 1 1 1 1 2 2 2 2 2 2 2 2
1 2 2 1 1 1 1 1 1 1 1 0 0 0 0 0 0 0 1 1 0 0 1 1 0 0 0 0 0 1 1 1 1 1 2 2 2 2 2 2 2 2 2
1 1 2 2 2 2 2 1 1 1 1 1 0 0 1 0 0 1 1 0 1 1 1 1 1 1 1 1 1 1 1 1 2 2 2 3 2 2 2 2 3 3 2
2 2 2 2 2 2 2 2 1 1 1 1 1 1 1 1 1 1 1 1 1 1 1 1 1 1 1 1 2 1 1 2 2 2 2 3 2 3 3 3 3 3 2
1 2 2 2 2 2 2 2 2 2 1 1 0 1 1 1 1 1 1 0 1 1 1 1 1 1 2 2 2 1 1 2 2 2 2 3 3 4 4 3 3 2 2
2 2 2 2 3 3 3 3 2 2 1 1 1 2 2 1 1 1 1 0 0 0 0 1 1 1 1 2 1 1 1 2 2 2 3 3 3 4 3 3 2 2 2
3 3 3 3 3 3 3 3 3 2 1 1 1 1 1 1 1 1 1 0 0 0 0 1 1 2 2 3 3 2 1 2 2 3 3 3 3 4 4 4 3 2 2
3 3 3 3 4 4 3 3 3 2 1 1 1 1 1 1 1 1 1 0 0 1 1 1 1 2 3 4 4 3 1 2 3 3 3 3 4 4 3 3 3 3 4
4 4 4 4 4 4 3 3 2 1 1 1 1 1 1 1 1 1 1 1 1 1 1 2 2 2 3 5 4 3 1 2 2 2 2 3 3 3 3 2 2 3 3
3 3 3 3 4 4 3 2 2 2 2 2 2 2 2 2 1 1 2 1 1 1 2 2 2 2 4 5 4 2 1 2 2 2 2 3 3 4 4 2 2 3 3
2 2 2 3 3 4 2 1 1 2 3 3 3 2 2 2 2 2 2 2 1 1 2 2 2 2 3 5 4 3 1 2 2 2 3 3 4 4 3 2 2 4 4
2 2 2 2 3 3 2 1 2 3 4 3 3 2 2 2 2 2 1 1 1 1 1 2 2 2 3 4 4 4 2 2 2 2 3 3 5 5 4 3 3 5 4
3 2 2 3 3 3 2 2 3 4 3 2 2 2 2 2 2 1 1 1 0 1 1 2 2 2 2 3 4 4 4 3 2 3 3 3 5 5 5 4 4 4 3
2 2 2 3 3 3 2 3 4 3 2 2 3 3 3 2 2 1 1 1 1 1 2 2 2 3 2 3 5 5 5 5 3 3 4 4 4 4 3 4 4 2 1
2 2 2 3 4 4 3 3 4 3 2 2 3 3 3 3 2 2 1 1 2 2 2 2 3 3 3 3 2 2 3 3 2 2 3 4 3 2 3 2 2 1 1
2 2 2 3 4 4 4 3 3 3 2 3 3 3 3 2 3 2 2 2 2 3 3 3 3 3 4 4 5 3 3 2 2 2 2 2 1 1 2 1 1 1 1
2 2 3 3 4 4 4 4 3 2 2 3 3 2 2 2 2 2 3 4 3 5 5 4 4 4 5 6 6 5 5 5 3 2 2 2 2 2 2 2 2 2 2
Wind_Direction
286 69 66 54 58 62 70 78 74 80 91 89 91 91 69 49 60 47 59 78 80 87 97 102 104 101 120 131 124 121 98 56 52 61 24 8 18 28 15 19 24 18 14
35 78 69 53 59 81 85 84 78 74 89 101 119 110 115 84 69 42 40 55 76 84 88 88 125 124 114 90 95 107 105 65 57 85 77 10 350 3 7 6 17 11 9
197 200 149 116 70 88 118 113 93 74 55 60 81 78 67 39 31 31 8 11 52 79 89 90 88 105 121 131 115 123 118 130 56 79 108 113 248 310 322 340 355 354 355
210 206 194 191 201 209 107 100 95 83 68 79 95 107 108 117 271 252 266 13 47 54 67 89 96 104 118 137 153 123 135 139 162 107 60 135 165 179 306 311 323 333 331
215 212 207 203 206 129 104 93 82 77 78 83 97 111 102 87 20 28 67 51 34 48 48 64 85 87 104 144 152 157 148 163 173 169 132 81 62 155 207 289 311 316 298
222 222 209 133 82 68 76 77 81 65 67 89 89 98 113 92 69 30 33 67 35 34 32 37 49 64 72 171 180 179 175 184 183 173 162 165 172 215 216 271 298 302 299
195 191 159 132 101 90 93 90 96 61 50 89 102 112 135 137 139 181 227 178 43 353 334 10 11 25 355 147 153 170 184 190 198 203 212 210 208 195 204 259 293 298 298
161 174 189 178 156 140 116 111 148 247 14 98 130 138 122 149 181 215 197 205 220 222 321 1 6 10 19 40 111 157 189 189 203 217 221 224 230 210 202 202 256 310 302
0 58 57 67 94 127 200 202 191 238 257 229 195 106 118 147 218 244 205 203 252 12 30 23 25 11 18 31 53 177 224 213 216 222 228 239 241 238 232 217 208 227 299
10 13 35 47 16 340 304 20 156 204 274 303 218 254 237 241 243 222 194 200 299 37 92 27 32 30 26 20 264 289 281 231 249 234 238 254 254 247 241 239 248 234 242
345 359 354 359 27 31 35 27 28 27 8 338 274 308 281 304 79 198 216 210 210 191 204 234 223 210 256 285 230 277 308 282 276 267 252 262 263 254 248 247 251 251 242
6 19 20 25 27 16 8 5 6 359 325 309 355 348 338 27 66 264 245 213 193 255 238 217 214 244 280 262 237 258 289 282 286 273 267 273 275 274 265 249 252 256 256
9 24 31 21 5 352 343 339 334 323 337 355 22 22 7 358 329 295 258 223 190 211 232 187 217 256 272 274 267 241 256 271 279 281 266 266 263 272 276 270 257 259 278
358 13 4 351 342 341 339 328 315 323 336 352 19 312 287 289 297 302 269 238 193 180 201 219 234 252 261 253 264 264 278 287 292 290 283 268 256 260 269 270 273 281 283
355 345 333 329 335 341 337 327 320 328 330 339 301 278 285 290 310 331 316 9 53 274 259 256 268 271 258 246 263 257 278 277 290 304 304 297 290 290 285 286 284 286 285
325 326 328 327 324 324 320 317 313 311 318 309 294 311 315 317 318 319 333 37 24 359 335 275 267 272 278 286 276 277 255 266 272 287 303 307 305 300 296 297 302 290 276
307 315 315 309 307 305 300 294 299 307 310 299 309 311 315 302 290 318 333 285 294 331 314 297 287 285 291 300 292 281 273 265 268 273 288 309 305 312 284 287 303 294 297
301 306 309 314 316 313 309 304 308 310 309 322 325 314 325 300 293 310 299 281 297 284 278 285 282 286 296 305 305 305 294 270 275 276 274 283 293 291 308 285 283 286 283
290 293 301 310 316 315 312 321 331 332 329 315 307 306 299 291 293 294 292 280 279 278 277 280 277 278 293 305 312 331 298 277 284 288 284 285 283 298 323 317 294 303 305
319 321 329 336 334 326 327 349 334 333 312 303 301 303 299 285 278 277 281 280 262 271 292 294 285 276 282 299 308 323 276 282 289 292 284 288 296 309 315 296 283 290 303
327 343 349 343 330 332 354 351 332 314 307 313 317 316 309 294 278 280 284 273 265 292 295 292 296 288 288 299 301 309 289 266 278 285 290 288 299 306 307 303 283 294 309
347 356 352 339 340 352 359 334 317 311 319 326 326 322 319 310 316 305 293 283 234 277 289 296 303 299 296 299 298 303 302 299 270 276 284 290 303 303 304 302 308 320 328
334 344 340 332 340 347 346 323 316 321 324 331 326 321 323 317 311 284 276 272 258 266 283 288 294 305 305 300 303 301 304 301 291 284 292 296 299 305 300 311 323 336 321
331 340 344 330 325 329 330 317 319 323 324 322 319 318 323 323 317 301 282 263 253 262 269 276 287 296 300 295 294 293 301 308 302 301 301 302 299 310 312 319 319 319 294
325 332 318 305 305 317 323 325 329 334 331 322 318 319 319 312 309 303 288 281 262 265 264 261 269 274 282 287 295 295 286 287 288 313 316 314 318 321 323 325 332 325 314
319 322 313 305 307 316 320 325 329 334 329 323 319 316 315 311 307 306 318 318 302 302 300 296 293 285 287 296 292 293 296 296 293 301 284 284 293 298 303 298 303 304 300
Height
1499 1500 1501 1502 1503 1504 1505 1506 1507 1508 1509 1510 1511 1512 1513 1514 1516 1516 1516 1517 1518 1519 1520 1521 1521 1522 1523 1523 1524 1524 1525 1524 1524 1524 1524 1524 1524 1524 1524 1523 1522 1522 1520
1498 1499 1500 1501 1502 1503 1504 1505 1506 1507 1508 1509 1510 1510 1512 1513 1514 1515 1515 1516 1517 1517 1518 1518 1519 1520 1521 1521 1522 1522 1522 1522 1522 1522 1522 1522 1523 1522 1522 1521 1521 1520 1518
1496 1497 1498 1500 1501 1501 1502 1504 1505 1506 1507 1508 1508 1509 1510 1511 1512 1513 1514 1514 1515 1516 1516 1516 1517 1518 1518 1519 1520 1520 1520 1520 1521 1521 1521 1521 1521 1520 1520 1519 1519 1518 1516
1495 1496 1497 1498 1499 1500 1501 1502 1503 1504 1505 1506 1506 1507 1508 1509 1509 1511 1512 1513 1513 1514 1514 1515 1516 1516 1516 1517 1518 1518 1519 1519 1519 1519 1520 1520 1519 1519 1517 1517 1516 1516 1514
1494 1495 1496 1497 1498 1499 1500 1501 1502 1503 1504 1504 1505 1506 1507 1507 1508 1509 1510 1511 1512 1512 1512 1513 1513 1514 1515 1515 1516 1516 1517 1518 1518 1517 1517 1517 1518 1517 1516 1514 1513 1512 1512
1492 1493 1494 1496 1497 1498 1499 1500 1500 1501 1502 1503 1503 1504 1505 1506 1507 1507 1508 1509 1509 1510 1510 1511 1511 1512 1513 1513 1514 1514 1515 1515 1516 1516 1516 1515 1515 1515 1514 1512 1510 1509 1508
1490 1491 1492 1493 1494 1496 1497 1498 1499 1499 1500 1501 1502 1502 1504 1505 1505 1505 1506 1507 1507 1507 1508 1509 1509 1510 1511 1511 1512 1512 1512 1513 1513 1513 1513 1514 1514 1513 1513 1511 1509 1506 1505
1489 1490 1491 1492 1493 1494 1495 1496 1497 1498 1499 1499 1500 1501 1502 1503 1503 1504 1504 1505 1505 1505 1506 1507 1507 1508 1509 1509 1509 1509 1510 1510 1510 1510 1511 1511 1511 1511 1510 1510 1508 1504 1502
1488 1489 1490 1491 1492 1492 1493 1494 1495 1496 1497 1497 1498 1499 1500 1501 1502 1502 1502 1503 1503 1504 1504 1505 1505 1506 1506 1507 1507 1507 1507 1508 1508 1508 1508 1508 1509 1508 1508 1507 1506 1505 1501
1487 1488 1489 1490 1491 1492 1492 1493 1494 1494 1495 1496 1497 1497 1498 1499 1499 1500 1500 1501 1501 1501 1502 1502 1503 1503 1504 1504 1505 1505 1505 1505 1505 1505 1506 1505 1505 1505 1505 1504 1503 1502 1501
1487 1488 1488 1489 1490 1490 1491 1491 1492 1492 1493 1494 1495 1495 1496 1496 1497 1497 1498 1498 1498 1499 1499 1500 1500 1501 1501 1502 1502 1502 1502 1502 1502 1502 1502 1502 1502 1501 1501 1500 1500 1499 1498
1487 1488 1488 1488 1489 1489 1489 1489 1490 1490 1491 1492 1493 1493 1494 1494 1495 1495 1496 1496 1496 1496 1497 1497 1498 1498 1499 1499 1499 1499 1499 1499 1499 1499 1499 1499 1499 1498 1497 1497 1496 1495 1494
1487 1487 1487 1487 1487 1487 1488 1488 1488 1489 1490 1490 1490 1491 1492 1492 1492 1493 1493 1493 1494 1494 1494 1494 1495 1495 1496 1496 1496 1496 1496 1496 1496 1496 1496 1495 1495 1495 1494 1494 1493 1492 1491
1487 1486 1486 1486 1486 1486 1486 1487 1487 1487 1488 1488 1489 1489 1490 1490 1490 1491 1490 1490 1491 1491 1492 1492 1492 1493 1493 1493 1493 1493 1493 1493 1493 1493 1492 1492 1492 1491 1491 1490 1489 1488 1487
1486 1486 1485 1485 1485 1485 1485 1485 1485 1485 1486 1486 1487 1487 1488 1488 1488 1488 1488 1488 1488 1488 1489 1489 1490 1490 1490 1490 1490 1491 1490 1490 1490 1489 1489 1489 1488 1488 1488 1487 1486 1484 1483
1485 1485 1485 1484 1484 1484 1483 1483 1483 1484 1484 1484 1484 1484 1485 1485 1485 1486 1485 1485 1485 1485 1486 1486 1486 1487 1487 1487 1487 1487 1487 1487 1486 1486 1485 1485 1485 1485 1484 1484 1483 1482 1480
1485 1484 1484 1483 1483 1482 1482 1482 1482 1482 1482 1482 1482 1483 1483 1482 1483 1483 1483 1483 1483 1483 1483 1483 1483 1483 1484 1484 1484 1484 1484 1483 1483 1482 1482 1482 1481 1481 1481 1480 1479 1478 1477
1483 1483 1482 1482 1481 1481 1480 1480 1480 1480 1480 1480 1479 1480 1479 1480 1480 1480 1480 1480 1480 1480 1480 1480 1480 1480 1480 1480 1481 1480 1480 1480 1480 1479 1478 1478 1478 1478 1477 1476 1475 1474 1474
1483 1482 1482 1481 1480 1480 1479 1478 1478 1477 1477 1477 1477 1477 1477 1477 1477 1477 1477 1478 1478 1478 1478 1477 1477 1477 1477 1477 1477 1477 1477 1476 1476 1476 1475 1475 1474 1474 1474 1473 1472 1471 1470
1482 1481 1480 1480 1479 1478 1477 1477 1476 1476 1475 1475 1475 1474 1474 1475 1475 1475 1475 1475 1475 1475 1475 1474 1474 1474 1473 1474 1474 1474 1473 1473 1472 1472 1472 1472 1471 1471 1470 1469 1468 1467 1466
1480 1480 1479 1478 1477 1477 1476 1475 1474 1474 1474 1473 1472 1472 1472 1472 1472 1473 1473 1472 1472 1471 1471 1472 1471 1471 1471 1471 1471 1471 1470 1470 1469 1469 1469 1468 1468 1468 1467 1466 1465 1464 1463
1478 1478 1477 1476 1476 1475 1475 1474 1473 1472 1471 1471 1470 1470 1470 1470 1470 1469 1469 1469 1469 1468 1468 1468 1468 1468 1468 1467 1467 1467 1467 1467 1466 1466 1465 1465 1465 1464 1463 1462 1462 1461 1460
1477 1476 1476 1475 1475 1474 1473 1472 1471 1470 1470 1469 1468 1467 1467 1467 1467 1467 1466 1466 1466 1466 1465 1465 1464 1464 1464 1464 1464 1464 1464 1463 1463 1463 1462 1462 1461 1461 1460 1459 1459 1458 1457
1475 1475 1474 1473 1473 1472 1471 1470 1470 1469 1468 1467 1466 1465 1464 1464 1465 1464 1464 1463 1463 1463 1462 1462 1462 1461 1461 1461 1461 1460 1460 1460 1460 1459 1459 1459 1458 1457 1457 1456 1455 1454 1454
1473 1473 1472 1471 1471 1470 1469 1468 1467 1466 1465 1464 1464 1463 1463 1462 1462 1461 1461 1460 1460 1460 1460 1459 1459 1458 1458 1458 1458 1457 1457 1457 1456 1456 1455 1455 1454 1454 1453 1453 1452 1451 1451
1471 1471 1470 1469 1468 1468 1467 1466 1465 1464 1463 1462 1461 1461 1460 1460 1459 1458 1458 1458 1458 1457 1457 1456 1456 1456 1456 1455 1455 1454 1454 1454 1453 1453 1452 1451 1451 1450 1450 1449 1449 1448 1448